Location: Bletchingley
(51.2333°N, 0.1000°W)
Time: 09:06:09
(UTC+00:00)

Cosmos 2266 Rocket - Visible Passes

Search period start: 17 January 2021 00:00
Search period end: 27 January 2021 00:00
Orbit: 934 x 1008 km, 82.9° (Epoch: 16 January)

Date Brightness Start Highest point End Pass type
(mag) Time Alt. Az. Time Alt. Az. Time Alt. Az.
17 Jan 5.8 06:25:47 10° N 06:30:59 28° ENE 06:36:08 10° ESE visible
18 Jan 5.1 06:49:34 10° N 06:55:24 44° ENE 07:01:08 10° SE visible
19 Jan 6.5 05:29:37 10° NNE 05:33:07 15° NE 05:36:34 10° E visible
19 Jan 4.3 07:13:32 10° N 07:19:39 72° ENE 07:25:39 10° SSE visible
20 Jan 6.1 05:52:57 10° N 05:57:47 24° ENE 06:02:33 10° ESE visible
21 Jan 5.4 06:16:39 10° N 06:22:15 37° ENE 06:27:48 10° SE visible
22 Jan 6.6 04:57:11 10° NNE 04:59:48 13° NE 05:02:25 10° ENE visible
22 Jan 4.6 06:40:33 10° N 06:46:34 59° ENE 06:52:30 10° SSE visible
23 Jan 6.3 05:20:10 10° NNE 05:24:33 20° ENE 05:28:51 10° ESE visible
23 Jan 4.0 07:04:37 10° N 07:10:42 87° W 07:16:45 10° S visible
23 Jan6.920:53:08N20:53:08N20:37:15SSWvisible
24 Jan 5.7 05:43:46 10° N 05:49:05 31° ENE 05:54:22 10° SE visible
24 Jan 6.2 19:31:57 - NNE 19:31:57 - NNE 19:18:13 10° SSE visible
24 Jan6.821:16:29N21:16:29N21:02:55SWvisible
25 Jan 6.8 04:25:19 10° NE 04:26:28 10° NE 04:27:37 10° ENE visible
25 Jan 4.9 06:07:35 10° N 06:13:28 49° ENE 06:19:17 10° SSE visible
25 Jan6.118:10:35NNE18:10:35NNE17:59:27ESEvisible
25 Jan 5.4 19:41:58 10° S 19:55:05 - NNE 19:44:11 23° S visible
25 Jan6.721:39:34N21:39:34N21:28:55WSWvisible
26 Jan 6.5 04:47:29 10° NNE 04:51:17 17° ENE 04:55:03 10° E visible
26 Jan 4.1 06:31:35 10° N 06:37:40 79° E 06:43:42 10° SSE visible
26 Jan 5.1 18:22:46 10° SE 18:33:13 - NNE 18:25:59 22° ESE visible
26 Jan 4.5 20:06:05 10° SSW 20:17:39 14° N 20:18:27 10° N visible
26 Jan 6.7 21:55:18 10° W 22:02:04 11° NNW 22:02:19 10° NNW visible
